Starlink 36498

operational
NORAD ID: 67318 Int'l Des: 2026-002 Owner: SPXS Country: US Constellation: starlink
NOTLE

About Starlink 36498

Description loading...

Live Position

Loading 3D Globe...

Upcoming Passes

Altitude History

Altitude vs Time

uPlot chart will show altitude changes over time

Two-Line Element Set

1 67318U 26002P 26047.58335648 .00068156 00000-0 24658-2 0 9999
2 67318 43.0005 84.5786 0001341 266.6589 309.4069 15.27548326 6020
Epoch: Feb 16, 2026 • Age: 9 hours

Current Status

Altitude 482.9 km
Velocity 7.63 km/s
Sub-Earth Point -1.11°S, 127.64°E
Launch Date Jan 4, 2026
Age 0.1 years
Type internet

Technical Details

Classification Payload
Mass 575.00 kg
Dry Mass 530.00 kg
Total Mass 575.00 kg
Length 0.30 m
Diameter 4.10 m
Span 29.00 m
Shape Box + pan
Manufacturer SPXS
Bus Type Starlink V2MO
Phase Status In Orbit
Owner/State SPXS/US

Large Constellations

Loading constellations...